Regional Weather Roundup
Issued by NWS

Home | Current Version | Previous Version | Text Only | Print | Product List | Glossary On
Versions: 1 2 3 4 5 6 7 8 9 10 11 12 13 14 15 16 17 18 19 20 21 22 23 24 25 26 27 28 29 30 31 32 33 34 35 36 37 38 39 40 41 42 43 44 45 46 47 48 49 50
000
ASUS45 KABQ 192310
RWRNM
NEW MEXICO REGIONAL WEATHER ROUNDUP
NATIONAL WEATHER SERVICE ALBUQUERQUE NM
400 PM MST THU JAN 19 2017

NOTE: "FAIR" MEANS FEW OR NO CLOUDS BELOW 12,000 FEET AGL WITH NO
       SIGNIFICANT WEATHER OR OBSTRUCTIONS TO VISION.

      THIS PRODUCT IS RELEASED AS TWO VERSIONS.  ONE VERSION NEAR
      THE TOP OF THE HOUR CONTAINING PRELIMINARY DATA FROM ALBUQUERQUE
      AND OTHER STATIONS.  A FINAL VERSION WITH ADDITIONAL DATA IS
      ISSUED ABOUT 10 MINUTES AFTER THE HOUR.

NMZ501-503-504-510>518-200000-
NORTHWEST PLATEAU/NORTHCENTRAL MOUNTAINS

CITY           SKY/WX    TMP DP  RH WIND       PRES   REMARKS
FARMINGTON     CLOUDY    37  31  78 W8        29.80R WCI  31
LOS ALAMOS     CLOUDY    38  27  64 SE6       29.78R WCI  34
SANTA FE       FAIR      43  26  51 W7        29.75S
TAOS           FAIR      37  19  48 SW14      29.74F WCI  29
ANGEL FIRE     FAIR      32  21  65 W15       29.72S WCI  21

$$
NMZ402-403-502-505>509-200000-
WESTCENTRAL MOUNTAINS/SOUTHWEST MOUNTAINS

CITY           SKY/WX    TMP DP  RH WIND       PRES   REMARKS
GALLUP         LGT SNOW  33  32  96 SW6       29.83F FOG     WCI  28
GRANTS         CLOUDY    40  28  63 N6        29.82F
SILVER CITY    CLOUDY    44  32  64 W14       29.90S

$$
NMZ407-409-411-412-200000-
SOUTHERN DESERTS

CITY           SKY/WX    TMP DP  RH WIND       PRES   REMARKS
DEMING         FAIR      51  27  39 W18       29.88F
LAS CRUCES     PTSUNNY   51  30  44 W25G32    29.87F
HOLLOMAN AFB   PTSUNNY   53  37  53 SW14      29.84S
ALAMOGORDO     FAIR      52  36  54 SW10      29.83S
T OR C         PTSUNNY   52  30  43 W8        29.80S

$$
NMZ519>523-200000-
CENTRAL VALLEYS/CENTRAL HIGHLANDS

CITY           SKY/WX    TMP DP  RH WIND       PRES   REMARKS
ALBUQUERQUE    CLOUDY    48  26  42 W15       29.78S
DOUBLE EAGLE   PTSUNNY   45  28  53 W10       29.78F
MORIARTY ARPT  FAIR      44  24  45 W16G23    29.78R
CLINES CORNERS FAIR      40  26  57 NW26G37   29.75R WCI  29
BELEN          CLOUDY    48  27  42 W22G29    29.79S
SOCORRO        CLOUDY    50  28  41 CALM      29.80S

$$
NMZ524>526-539-540-200000-
SOUTHCENTRAL MOUNTAINS

CITY           SKY/WX    TMP DP  RH WIND       PRES   REMARKS
RUIDOSO        FAIR      45  19  36 W23G35    29.79S

$$
NMZ527>531-200000-
NORTHEAST HIGHLANDS/NORTHEAST PLAINS

CITY           SKY/WX    TMP DP  RH WIND       PRES   REMARKS
LAS VEGAS      FAIR      40  25  55 E10       29.62F WCI  33
RATON          FAIR      48  23  37 S9        29.57S
CLAYTON        FAIR      61  20  20 CALM      29.55R

$$
NMZ532>537-200000-
EASTCENTRAL PLAINS

CITY           SKY/WX    TMP DP  RH WIND       PRES   REMARKS
TUCUMCARI      FAIR      63  25  23 W17       29.54R
CANNON AFB     FAIR      58  24  26 W26G36    29.60R
CLOVIS AIRPORT FAIR      57  27  30 W22G31    29.60R

$$
NMZ028-029-538-200000-
SOUTHEAST PLAINS

CITY           SKY/WX    TMP DP  RH WIND       PRES   REMARKS
ROSWELL        FAIR      61  26  26 W8        29.69S
ARTESIA        FAIR      61  27  27 SW21      29.71S
CARLSBAD       FAIR      59  30  33 W30G36    29.71S
HOBBS          SUNNY     57  28  33 SW25G32   29.70R


$$



USA.gov is the U.S. government's official web portal to all federal, state and local government web resources and services.